Weather History for Sidney, NE

Change the Weather History Date:

Wednesday, September 4, 2013

  Actual Average Record
Temperature  
Mean Temperature 81 °F 69 °F  
Max Temperature 99 °F 84 °F 100 °F (1998)
Min Temperature 62 °F 53 °F 33 °F (1975)
Degree Days  
Heating Degree Days 0 1  
Month to date heating degree days 0 4  
Since 1 July heating degree days 9 15  
Cooling Degree Days 16 5  
Month to date cooling degree days 44 22  
Year to date cooling degree days 807 764  
Growing Degree Days 31 (Base 50)    
Moisture  
Dew Point 55 °F    
Average Humidity 44    
Maximum Humidity 67    
Minimum Humidity 21    
Precipitation  
Precipitation 0.01 in 0.06 in 0.52 in (2004)
Month to date precipitation 0.01 0.24  
Year to date precipitation 8.18 15.40  
Sea Level Pressure  
Sea Level Pressure 30.01 in    
Wind  
Wind Speed 10 mph (ESE)    
Max Wind Speed 30 mph    
Max Gust Speed 39 mph    
Visibility 10 miles    
Events Rain , Thunderstorm    
T = Trace of Precipitation, MM = Missing Value Source: NWS Daily Summary

Daily Weather History Graph

Daily Weather History Graph

Search for Another Location

Airport:

Trip Planner

Search our weather history database for the weather conditions in past years. The results will help you decide how hot, cold, wet, or windy it might be!

Date:

Astronomy

Sep. 04, 2013 Rise Set
Actual Time 6:21 AM MDT 7:19 PM MDT
Civil Twilight 5:53 AM MDT 7:47 PM MDT
Nautical Twilight 5:20 AM MDT 8:20 PM MDT
Astronomical Twilight 4:45 AM MDT 8:55 PM MDT
Moon 5:36 AM MDT (9/4) 6:39 PM MDT (9/4)
Length of Visible Light 13h 53m
Length of Day
12h 57m
Waning Crescent, 1% of the Moon is Illuminated
Sep 4
Waning Crescent
Sep 5
New
Sep 12
First Quarter
Sep 19
Full
Sep 26
Last Quarter

Hourly Weather History & Observations

Time (MDT) Temp. Heat Index Dew Point Humidity Pressure Visibility Wind Dir Wind Speed Gust Speed Precip Events Conditions
12:53 AM 70.0 °F - 54.0 °F 57% 29.91 in 10.0 mi SW 5.8 mph - N/A   Clear
1:53 AM 68.0 °F - 53.1 °F 59% 29.91 in 10.0 mi South 3.5 mph - N/A   Clear
2:53 AM 66.0 °F - 54.0 °F 65% 29.92 in 10.0 mi WSW 4.6 mph - N/A   Clear
3:53 AM 66.9 °F - 54.0 °F 63% 29.92 in 10.0 mi WNW 11.5 mph - N/A   Clear
4:53 AM 64.0 °F - 53.1 °F 67% 29.94 in 10.0 mi Calm Calm - N/A   Clear
5:53 AM 64.9 °F - 54.0 °F 68% 29.95 in 10.0 mi NNW 3.5 mph - N/A   Clear
6:53 AM 66.0 °F - 54.0 °F 65% 29.97 in 10.0 mi Calm Calm - N/A   Clear
7:53 AM 71.1 °F - 54.0 °F 55% 30.00 in 10.0 mi NW 5.8 mph - N/A   Clear
8:53 AM 78.1 °F - 55.9 °F 46% 30.00 in 10.0 mi NNE 10.4 mph - N/A   Clear
9:53 AM 84.9 °F 84.2 °F 57.9 °F 40% 30.00 in 10.0 mi NNE 11.5 mph - N/A   Clear
10:53 AM 90.0 °F 88.6 °F 57.0 °F 33% 29.99 in 10.0 mi NNE 10.4 mph - N/A   Clear
11:53 AM 93.0 °F 91.1 °F 55.0 °F 28% 30.00 in 10.0 mi NE 9.2 mph - N/A   Clear
12:53 PM 93.9 °F 91.4 °F 53.1 °F 25% 29.99 in 10.0 mi Variable 6.9 mph - N/A   Clear
1:53 PM 95.0 °F - 51.1 °F 22% 29.97 in 10.0 mi Variable 5.8 mph 18.4 mph N/A   Clear
2:53 PM 97.0 °F - 52.0 °F 22% 29.95 in 10.0 mi Variable 6.9 mph - N/A   Clear
3:53 PM 98.1 °F - 51.1 °F 20% 29.94 in 10.0 mi South 15.0 mph 23.0 mph N/A   Clear
4:53 PM 97.0 °F - 50.0 °F 20% 29.94 in 10.0 mi SSW 15.0 mph 18.4 mph N/A   Clear
5:53 PM 95.0 °F - 52.0 °F 23% 29.94 in 10.0 mi SSE 11.5 mph - N/A   Clear
6:02 PM 93.2 °F - 51.8 °F 24% 30.13 in 10.0 mi SSE 11.5 mph - N/A Thunderstorm Clear
6:17 PM 93.2 °F 90.8 °F 53.6 °F 26% 30.13 in 10.0 mi SE 6.9 mph - N/A   Clear
6:53 PM 89.1 °F 87.1 °F 55.0 °F 31% 29.96 in 10.0 mi SE 5.8 mph - N/A   Clear
7:53 PM 80.1 °F 80.4 °F 57.0 °F 45% 29.99 in 10.0 mi NNE 13.8 mph 24.2 mph N/A   Scattered Clouds
8:05 PM 78.8 °F - 57.2 °F 47% 30.16 in 10.0 mi NE 20.7 mph 24.2 mph N/A Thunderstorm Mostly Cloudy
8:53 PM 77.0 °F - 55.9 °F 48% 30.01 in 10.0 mi NNE 24.2 mph 32.2 mph N/A Thunderstorm Scattered Clouds
9:53 PM 73.0 °F - 61.0 °F 66% 30.09 in 10.0 mi South 11.5 mph - 0.00 in Rain , Thunderstorm Light Thunderstorms and Rain
10:23 PM 71.6 °F - 60.8 °F 69% 30.23 in 10.0 mi ESE 10.4 mph - 0.01 in Rain Light Rain
10:53 PM 72.0 °F - 60.1 °F 66% 30.04 in 10.0 mi ESE 18.4 mph - 0.01 in   Mostly Cloudy
11:19 PM 71.6 °F - 60.8 °F 69% 30.21 in 10.0 mi SE 20.7 mph - N/A Thunderstorm Scattered Clouds
11:53 PM 72.0 °F - 60.1 °F 66% 30.02 in 10.0 mi ESE 23.0 mph 32.2 mph 0.00 in Rain , Thunderstorm Light Rain